Location: Austin
(30.3000°N, 97.7500°W)
Time: 04:05:09
(UTC-05:00)

OAO 2 Rocket - Pass Details

Date: 18 March 2023
Orbit: 675 x 743 km, 35.0° (Epoch: 01 April)

Event Time Altitude Azimuth Distance (km) Brightness Sun altitude
Rises 20:19:30 0° 287° (WNW) 3,086 8.5 -9.1°
Reaches altitude 10° 20:21:55 10° 291° (WNW) 2,179 7.3 -9.6°
Maximum altitude 20:27:00 62° 12° (NNE) 809 3.6 -10.7°
Enters shadow 20:31:10 16° 91° (E) 1,854 4.8 -11.6°
